Погода в Харыялахе

Россия / Республика Саха (Якутия)     68°29′52″N   112°24′37″E
темп.,
°C
ветер,
м/с
пор.,
м/с
влажн.,
%
обл.,
%
осадки,
мм/ч
давл.,
гПа
погр.,
м
4 августа, ср
ср400:00+19св3656100 0.0 101694
03:00+16ссв3661100 0.0 1017102
06:00+16ссв396729 0.0 1018245
09:00+20св69455 0.0 1018665
12:00+23св78335 0.0 10171133
15:00+24св89255 0.0 10161376
18:00+24св89228 0.0 10161394
21:00+21св610305 0.0 1016425
5 августа, чт
чт500:00+16ссв412415 0.0 1017221
03:00+13ссв48455 0.0 1017125
06:00+12ссв4114555 0.0 1018336
09:00+16св711357 0.0 1017564
12:00+20св9112810 0.0 1016954
15:00+23св1012235 0.0 10151386
18:00+24всв10122150 0.0 10151459
21:00+20всв8132843 0.0 1016738
6 августа, пт
пт600:00+15св714385 0.0 1018393
03:00+12св713525 0.0 1018308
06:00+10св613585 0.0 1019374
09:00+14св811420 0.0 1019647
12:00+17св911330 0.0 10181153
15:00+18св910320 0.0 10171657
18:00+16св91040100 0.0 10171518
21:00+14св684520 0.0 10171086
7 августа, сб
сб700:00+10с49585 0.0 1016183
03:00+8с476873 0.0 1016148
06:00+8ссв486937 0.0 1016317
09:00+11ссв5659100 0.0 1016738
12:00+14св44496 0.0 10161045
15:00+17св33428 0.0 10151443
18:00+18ссв334026 0.0 10151694
21:00+16с235133 0.0 101558
8 августа, вс
вс800:00+11с33663 0.0 101521
03:00+10с22732 0.0 101618
06:00+10ссз22700 0.0 101616
09:00+15с23510 0.0 1016509
12:00+18ссз33410 0.0 10151378
15:00+20с22353 0.0 10141857
18:00+21ссз233498 0.0 10142126
21:00+18ссз224363 0.0 101428